Regional Weather Roundup
Issued by NWS

Home | Current Version | Previous Version | Text Only | Print | Product List | Glossary Off
Versions: 1 2 3 4 5 6 7 8 9 10 11 12 13 14 15 16 17 18 19 20 21 22 23 24 25 26 27 28 29 30 31 32 33 34 35 36 37 38 39 40 41 42 43 44 45 46 47 48 49 50

000
ASUS43 KOAX 301902
RWRNE

WEATHER ROUNDUP FOR NEBRASKA
NATIONAL WEATHER SERVICE OMAHA NE
200 PM CDT SAT APR 30 2016

NOTES: SATELLITE DATA IS BEING USED TO AUGMENT CLOUD COVER ABOVE
       12000 FEET.
       "FAIR" INDICATES FEW OR NO CLOUDS BELOW 12,000 FEET WITH NO
       SIGNIFICANT WEATHER AND/OR OBSTRUCTIONS TO VISIBILITY.

  * THESE STATIONS DO NOT REPORT WEATHER SUCH AS RAIN...SNOW OR FOG.

NEZ001>004-019>022-054>056-302000-
NEBRASKA PANHANDLE

CITY           SKY/WX    TMP DP  RH WIND       PRES   REMARKS
SCOTTSBLUFF    LGT RAIN  38  35  89 N20G29    29.99R WCI  28
ALLIANCE       LGT SNOW  34  32  92 N20       29.95R VSB 3/4 WCI  23
CHADRON        LGT RAIN  42  38  85 N18G25    30.02S
KIMBALL        LGT SNOW  34  33  96 N23       29.94S VSB 3/4 WCI  22
SIDNEY         SNOW      34  32  92 N22       29.92R VSB 1/2 WCI  22
$$

NEZ057>060-069>072-079>082-302000-
SOUTHWEST NEBRASKA

CITY           SKY/WX    TMP DP  RH WIND       PRES   REMARKS
NORTH PLATTE   FLURRIES  36  33  89 N22G28    29.83S WCI  25
IMPERIAL       CLOUDY    36  33  89 N21       29.85S WCI  25
LEXINGTON      LGT RAIN  41  37  87 N16       29.80R
MCCOOK         CLOUDY    42  36  79 N15       29.81R
$$

NEZ005>010-023>029-035>040-094-302000-
NORTH CENTRAL NEBRASKA

CITY           SKY/WX    TMP DP  RH WIND       PRES   REMARKS
VALENTINE      LGT RAIN  41  37  86 NE25G35   29.92S
BROKEN BOW     LGT RAIN  38  36  92 N17       29.81R FOG     WCI  28
ORD            LGT RAIN  42  40  92 NE16      29.79R FOG
$$

NEZ041-046>049-061>064-073>077-083>087-302000-
SOUTH CENTRAL NEBRASKA

CITY           SKY/WX    TMP DP  RH WIND       PRES   REMARKS
GRAND ISLAND   LGT RAIN  44  43  96 N13       29.75S FOG
AURORA         CLOUDY    46  46  99 N12       29.73F FOG
HASTINGS       LGT RAIN  45  42  89 N8        29.74R FOG
KEARNEY *      CLOUDY    43  41  93 N13       29.78R
YORK           LGT RAIN  46  46 100 NE9       29.73R VSB 1
$$

NEZ011>018-030>034-042>045-302000-
NORTHEAST NEBRASKA

CITY           SKY/WX    TMP DP  RH WIND       PRES   REMARKS
NORFOLK        CLOUDY    44  41  89 NE13G21   29.77R
ALBION         CLOUDY    44  42  94 NE14G24   29.77S FOG
BLAIR          CLOUDY    48  47  95 NE15G21   29.73R FOG
COLUMBUS *     CLOUDY    46  39  76 NE13      29.75S
FREMONT        CLOUDY    48  47  97 E12G20    29.74S FOG
TEKAMAH        LGT RAIN  47  45  93 NE13      29.76S FOG
$$

NEZ050>053-065>068-078-088>093-302000-
SOUTHEAST NEBRASKA

CITY           SKY/WX    TMP DP  RH WIND       PRES   REMARKS
LINCOLN        CLOUDY    51  48  89 NE9       29.73R FOG
OMAHA EPPLEY   DRIZZLE   49  47  93 E9        29.74R FOG
FALLS CITY     CLOUDY    58  53  84 W12       29.70R
$$

NEZ044-045-051>053-067-302000-
OMAHA AREA

CITY           SKY/WX    TMP DP  RH WIND       PRES   REMARKS
OMAHA EPPLEY   DRIZZLE   49  47  93 E9        29.74R FOG
BLAIR          CLOUDY    48  47  95 NE15G21   29.73R FOG
FREMONT        CLOUDY    48  47  97 E12G20    29.74S FOG
$$




USA.gov is the U.S. government's official web portal to all federal, state and local government web resources and services.